Index of /20260504/WXO-DD/model_gdps/15km/12/063
Name Last modified Size Description
Parent Directory -
20260504T12Z_MSC_GDPS_AbsoluteVorticity_IsbL-0200_LatLon0.15_PT063H.grib2 2026-05-04 16:29 1.5M
20260504T12Z_MSC_GDPS_AbsoluteVorticity_IsbL-0250_LatLon0.15_PT063H.grib2 2026-05-04 16:29 1.3M
20260504T12Z_MSC_GDPS_AbsoluteVorticity_IsbL-0500_LatLon0.15_PT063H.grib2 2026-05-04 16:29 1.4M
20260504T12Z_MSC_GDPS_AbsoluteVorticity_IsbL-0700_LatLon0.15_PT063H.grib2 2026-05-04 16:29 1.3M
20260504T12Z_MSC_GDPS_AbsoluteVorticity_IsbL-0850_LatLon0.15_PT063H.grib2 2026-05-04 16:29 1.6M
20260504T12Z_MSC_GDPS_AirTemp_AGL-120m_LatLon0.15_PT063H.grib2 2026-05-04 16:29 900K
20260504T12Z_MSC_GDPS_AirTemp_AGL-2m_LatLon0.15_PT063H.grib2 2026-05-04 16:29 1.0M
20260504T12Z_MSC_GDPS_AirTemp_AGL-40m_LatLon0.15_PT063H.grib2 2026-05-04 16:29 920K
20260504T12Z_MSC_GDPS_AirTemp_AGL-80m_LatLon0.15_PT063H.grib2 2026-05-04 16:29 908K
20260504T12Z_MSC_GDPS_AirTemp_IsbL-0001_LatLon0.15_PT063H.grib2 2026-05-04 16:29 663K
20260504T12Z_MSC_GDPS_AirTemp_IsbL-0005_LatLon0.15_PT063H.grib2 2026-05-04 16:29 695K
20260504T12Z_MSC_GDPS_AirTemp_IsbL-0010_LatLon0.15_PT063H.grib2 2026-05-04 16:29 700K
20260504T12Z_MSC_GDPS_AirTemp_IsbL-0020_LatLon0.15_PT063H.grib2 2026-05-04 16:29 788K
20260504T12Z_MSC_GDPS_AirTemp_IsbL-0030_LatLon0.15_PT063H.grib2 2026-05-04 16:29 837K
20260504T12Z_MSC_GDPS_AirTemp_IsbL-0050_LatLon0.15_PT063H.grib2 2026-05-04 16:29 802K
20260504T12Z_MSC_GDPS_AirTemp_IsbL-0100_LatLon0.15_PT063H.grib2 2026-05-04 16:29 951K
20260504T12Z_MSC_GDPS_AirTemp_IsbL-0150_LatLon0.15_PT063H.grib2 2026-05-04 16:29 966K
20260504T12Z_MSC_GDPS_AirTemp_IsbL-0175_LatLon0.15_PT063H.grib2 2026-05-04 16:29 955K
20260504T12Z_MSC_GDPS_AirTemp_IsbL-0200_LatLon0.15_PT063H.grib2 2026-05-04 16:29 967K
20260504T12Z_MSC_GDPS_AirTemp_IsbL-0225_LatLon0.15_PT063H.grib2 2026-05-04 16:29 970K
20260504T12Z_MSC_GDPS_AirTemp_IsbL-0250_LatLon0.15_PT063H.grib2 2026-05-04 16:29 1.0M
20260504T12Z_MSC_GDPS_AirTemp_IsbL-0275_LatLon0.15_PT063H.grib2 2026-05-04 16:29 1.0M
20260504T12Z_MSC_GDPS_AirTemp_IsbL-0300_LatLon0.15_PT063H.grib2 2026-05-04 16:29 1.0M
20260504T12Z_MSC_GDPS_AirTemp_IsbL-0350_LatLon0.15_PT063H.grib2 2026-05-04 16:29 924K
20260504T12Z_MSC_GDPS_AirTemp_IsbL-0400_LatLon0.15_PT063H.grib2 2026-05-04 16:29 935K
20260504T12Z_MSC_GDPS_AirTemp_IsbL-0450_LatLon0.15_PT063H.grib2 2026-05-04 16:29 958K
20260504T12Z_MSC_GDPS_AirTemp_IsbL-0500_LatLon0.15_PT063H.grib2 2026-05-04 16:29 1.0M
20260504T12Z_MSC_GDPS_AirTemp_IsbL-0550_LatLon0.15_PT063H.grib2 2026-05-04 16:29 793K
20260504T12Z_MSC_GDPS_AirTemp_IsbL-0600_LatLon0.15_PT063H.grib2 2026-05-04 16:29 881K
20260504T12Z_MSC_GDPS_AirTemp_IsbL-0650_LatLon0.15_PT063H.grib2 2026-05-04 16:29 913K
20260504T12Z_MSC_GDPS_AirTemp_IsbL-0700_LatLon0.15_PT063H.grib2 2026-05-04 16:29 949K
20260504T12Z_MSC_GDPS_AirTemp_IsbL-0750_LatLon0.15_PT063H.grib2 2026-05-04 16:29 1.0M
20260504T12Z_MSC_GDPS_AirTemp_IsbL-0800_LatLon0.15_PT063H.grib2 2026-05-04 16:29 1.0M
20260504T12Z_MSC_GDPS_AirTemp_IsbL-0850_LatLon0.15_PT063H.grib2 2026-05-04 16:29 1.1M
20260504T12Z_MSC_GDPS_AirTemp_IsbL-0875_LatLon0.15_PT063H.grib2 2026-05-04 16:29 1.2M
20260504T12Z_MSC_GDPS_AirTemp_IsbL-0900_LatLon0.15_PT063H.grib2 2026-05-04 16:29 1.1M
20260504T12Z_MSC_GDPS_AirTemp_IsbL-0925_LatLon0.15_PT063H.grib2 2026-05-04 16:29 1.1M
20260504T12Z_MSC_GDPS_AirTemp_IsbL-0950_LatLon0.15_PT063H.grib2 2026-05-04 16:29 1.1M
20260504T12Z_MSC_GDPS_AirTemp_IsbL-0970_LatLon0.15_PT063H.grib2 2026-05-04 16:29 1.1M
20260504T12Z_MSC_GDPS_AirTemp_IsbL-0985_LatLon0.15_PT063H.grib2 2026-05-04 16:29 1.1M
20260504T12Z_MSC_GDPS_AirTemp_IsbL-1000_LatLon0.15_PT063H.grib2 2026-05-04 16:29 1.1M
20260504T12Z_MSC_GDPS_AirTemp_IsbL-1015_LatLon0.15_PT063H.grib2 2026-05-04 16:29 1.1M
20260504T12Z_MSC_GDPS_Albedo_Sfc_LatLon0.15_PT063H.grib2 2026-05-04 16:29 242K
20260504T12Z_MSC_GDPS_CAPE_Sfc_LatLon0.15_PT063H.grib2 2026-05-04 16:29 4.0M
20260504T12Z_MSC_GDPS_CIN_Sfc_LatLon0.15_PT063H.grib2 2026-05-04 16:29 2.8M
20260504T12Z_MSC_GDPS_CloudWater_EAtm_LatLon0.15_PT063H.grib2 2026-05-04 16:29 535K
20260504T12Z_MSC_GDPS_ConvectivePrecip-Accum_Sfc_LatLon0.15_PT063H.grib2 2026-05-04 16:29 3.1M
20260504T12Z_MSC_GDPS_DewPointDepression_AGL-2m_LatLon0.15_PT063H.grib2 2026-05-04 16:29 762K
20260504T12Z_MSC_GDPS_DewPointDepression_IsbL-0010_LatLon0.15_PT063H.grib2 2026-05-04 16:29 77K
20260504T12Z_MSC_GDPS_DewPointDepression_IsbL-0020_LatLon0.15_PT063H.grib2 2026-05-04 16:29 70K
20260504T12Z_MSC_GDPS_DewPointDepression_IsbL-0030_LatLon0.15_PT063H.grib2 2026-05-04 16:29 87K
20260504T12Z_MSC_GDPS_DewPointDepression_IsbL-0050_LatLon0.15_PT063H.grib2 2026-05-04 16:29 380K
20260504T12Z_MSC_GDPS_DewPointDepression_IsbL-0100_LatLon0.15_PT063H.grib2 2026-05-04 16:29 401K
20260504T12Z_MSC_GDPS_DewPointDepression_IsbL-0150_LatLon0.15_PT063H.grib2 2026-05-04 16:29 489K
20260504T12Z_MSC_GDPS_DewPointDepression_IsbL-0175_LatLon0.15_PT063H.grib2 2026-05-04 16:29 592K
20260504T12Z_MSC_GDPS_DewPointDepression_IsbL-0200_LatLon0.15_PT063H.grib2 2026-05-04 16:29 696K
20260504T12Z_MSC_GDPS_DewPointDepression_IsbL-0225_LatLon0.15_PT063H.grib2 2026-05-04 16:29 772K
20260504T12Z_MSC_GDPS_DewPointDepression_IsbL-0250_LatLon0.15_PT063H.grib2 2026-05-04 16:29 856K
20260504T12Z_MSC_GDPS_DewPointDepression_IsbL-0275_LatLon0.15_PT063H.grib2 2026-05-04 16:29 879K
20260504T12Z_MSC_GDPS_DewPointDepression_IsbL-0300_LatLon0.15_PT063H.grib2 2026-05-04 16:29 924K
20260504T12Z_MSC_GDPS_DewPointDepression_IsbL-0350_LatLon0.15_PT063H.grib2 2026-05-04 16:29 964K
20260504T12Z_MSC_GDPS_DewPointDepression_IsbL-0400_LatLon0.15_PT063H.grib2 2026-05-04 16:29 1.0M
20260504T12Z_MSC_GDPS_DewPointDepression_IsbL-0450_LatLon0.15_PT063H.grib2 2026-05-04 16:29 1.0M
20260504T12Z_MSC_GDPS_DewPointDepression_IsbL-0500_LatLon0.15_PT063H.grib2 2026-05-04 16:29 1.0M
20260504T12Z_MSC_GDPS_DewPointDepression_IsbL-0550_LatLon0.15_PT063H.grib2 2026-05-04 16:29 1.0M
20260504T12Z_MSC_GDPS_DewPointDepression_IsbL-0600_LatLon0.15_PT063H.grib2 2026-05-04 16:29 1.0M
20260504T12Z_MSC_GDPS_DewPointDepression_IsbL-0650_LatLon0.15_PT063H.grib2 2026-05-04 16:29 1.0M
20260504T12Z_MSC_GDPS_DewPointDepression_IsbL-0700_LatLon0.15_PT063H.grib2 2026-05-04 16:29 1.1M
20260504T12Z_MSC_GDPS_DewPointDepression_IsbL-0750_LatLon0.15_PT063H.grib2 2026-05-04 16:29 1.1M
20260504T12Z_MSC_GDPS_DewPointDepression_IsbL-0800_LatLon0.15_PT063H.grib2 2026-05-04 16:29 1.1M
20260504T12Z_MSC_GDPS_DewPointDepression_IsbL-0850_LatLon0.15_PT063H.grib2 2026-05-04 16:29 1.2M
20260504T12Z_MSC_GDPS_DewPointDepression_IsbL-0875_LatLon0.15_PT063H.grib2 2026-05-04 16:29 1.1M
20260504T12Z_MSC_GDPS_DewPointDepression_IsbL-0900_LatLon0.15_PT063H.grib2 2026-05-04 16:29 1.1M
20260504T12Z_MSC_GDPS_DewPointDepression_IsbL-0925_LatLon0.15_PT063H.grib2 2026-05-04 16:29 1.0M
20260504T12Z_MSC_GDPS_DewPointDepression_IsbL-0950_LatLon0.15_PT063H.grib2 2026-05-04 16:29 1.0M
20260504T12Z_MSC_GDPS_DewPointDepression_IsbL-0970_LatLon0.15_PT063H.grib2 2026-05-04 16:29 1.0M
20260504T12Z_MSC_GDPS_DewPointDepression_IsbL-0985_LatLon0.15_PT063H.grib2 2026-05-04 16:29 1.0M
20260504T12Z_MSC_GDPS_DewPointDepression_IsbL-1000_LatLon0.15_PT063H.grib2 2026-05-04 16:29 1.0M
20260504T12Z_MSC_GDPS_DewPointDepression_IsbL-1015_LatLon0.15_PT063H.grib2 2026-05-04 16:29 917K
20260504T12Z_MSC_GDPS_DewPoint_AGL-2m_LatLon0.15_PT063H.grib2 2026-05-04 16:29 603K
20260504T12Z_MSC_GDPS_DownwardLongwaveRadiationFlux-Accum_Sfc_LatLon0.15_PT063H.grib2 2026-05-04 16:29 879K
20260504T12Z_MSC_GDPS_DownwardShortwaveRadiationFlux-Accum_NTAtm_LatLon0.15_PT063H.grib2 2026-05-04 16:29 213K
20260504T12Z_MSC_GDPS_DownwardShortwaveRadiationFlux-Accum_Sfc_LatLon0.15_PT063H.grib2 2026-05-04 16:29 1.1M
20260504T12Z_MSC_GDPS_FreezingRain-Accum1h_Sfc_LatLon0.15_PT063H.grib2 2026-05-04 16:29 37K
20260504T12Z_MSC_GDPS_FreezingRain-Accum3h_Sfc_LatLon0.15_PT063H.grib2 2026-05-04 16:29 35K
20260504T12Z_MSC_GDPS_FreezingRain-Accum_Sfc_LatLon0.15_PT063H.grib2 2026-05-04 16:29 268K
20260504T12Z_MSC_GDPS_GeopotentialHeight_IsbL-0001_LatLon0.15_PT063H.grib2 2026-05-04 16:29 433K
20260504T12Z_MSC_GDPS_GeopotentialHeight_IsbL-0005_LatLon0.15_PT063H.grib2 2026-05-04 16:29 486K
20260504T12Z_MSC_GDPS_GeopotentialHeight_IsbL-0010_LatLon0.15_PT063H.grib2 2026-05-04 16:29 472K
20260504T12Z_MSC_GDPS_GeopotentialHeight_IsbL-0020_LatLon0.15_PT063H.grib2 2026-05-04 16:29 414K
20260504T12Z_MSC_GDPS_GeopotentialHeight_IsbL-0030_LatLon0.15_PT063H.grib2 2026-05-04 16:29 417K
20260504T12Z_MSC_GDPS_GeopotentialHeight_IsbL-0050_LatLon0.15_PT063H.grib2 2026-05-04 16:29 567K
20260504T12Z_MSC_GDPS_GeopotentialHeight_IsbL-0100_LatLon0.15_PT063H.grib2 2026-05-04 16:29 603K
20260504T12Z_MSC_GDPS_GeopotentialHeight_IsbL-0150_LatLon0.15_PT063H.grib2 2026-05-04 16:29 623K
20260504T12Z_MSC_GDPS_GeopotentialHeight_IsbL-0175_LatLon0.15_PT063H.grib2 2026-05-04 16:29 627K
20260504T12Z_MSC_GDPS_GeopotentialHeight_IsbL-0200_LatLon0.15_PT063H.grib2 2026-05-04 16:29 631K
20260504T12Z_MSC_GDPS_GeopotentialHeight_IsbL-0225_LatLon0.15_PT063H.grib2 2026-05-04 16:29 627K
20260504T12Z_MSC_GDPS_GeopotentialHeight_IsbL-0250_LatLon0.15_PT063H.grib2 2026-05-04 16:29 633K
20260504T12Z_MSC_GDPS_GeopotentialHeight_IsbL-0275_LatLon0.15_PT063H.grib2 2026-05-04 16:29 635K
20260504T12Z_MSC_GDPS_GeopotentialHeight_IsbL-0300_LatLon0.15_PT063H.grib2 2026-05-04 16:29 635K
20260504T12Z_MSC_GDPS_GeopotentialHeight_IsbL-0350_LatLon0.15_PT063H.grib2 2026-05-04 16:29 625K
20260504T12Z_MSC_GDPS_GeopotentialHeight_IsbL-0400_LatLon0.15_PT063H.grib2 2026-05-04 16:29 619K
20260504T12Z_MSC_GDPS_GeopotentialHeight_IsbL-0450_LatLon0.15_PT063H.grib2 2026-05-04 16:29 539K
20260504T12Z_MSC_GDPS_GeopotentialHeight_IsbL-0500_LatLon0.15_PT063H.grib2 2026-05-04 16:29 527K
20260504T12Z_MSC_GDPS_GeopotentialHeight_IsbL-0550_LatLon0.15_PT063H.grib2 2026-05-04 16:29 524K
20260504T12Z_MSC_GDPS_GeopotentialHeight_IsbL-0600_LatLon0.15_PT063H.grib2 2026-05-04 16:29 683K
20260504T12Z_MSC_GDPS_GeopotentialHeight_IsbL-0650_LatLon0.15_PT063H.grib2 2026-05-04 16:29 685K
20260504T12Z_MSC_GDPS_GeopotentialHeight_IsbL-0700_LatLon0.15_PT063H.grib2 2026-05-04 16:29 682K
20260504T12Z_MSC_GDPS_GeopotentialHeight_IsbL-0750_LatLon0.15_PT063H.grib2 2026-05-04 16:29 687K
20260504T12Z_MSC_GDPS_GeopotentialHeight_IsbL-0800_LatLon0.15_PT063H.grib2 2026-05-04 16:29 700K
20260504T12Z_MSC_GDPS_GeopotentialHeight_IsbL-0850_LatLon0.15_PT063H.grib2 2026-05-04 16:29 706K
20260504T12Z_MSC_GDPS_GeopotentialHeight_IsbL-0875_LatLon0.15_PT063H.grib2 2026-05-04 16:29 713K
20260504T12Z_MSC_GDPS_GeopotentialHeight_IsbL-0900_LatLon0.15_PT063H.grib2 2026-05-04 16:29 721K
20260504T12Z_MSC_GDPS_GeopotentialHeight_IsbL-0925_LatLon0.15_PT063H.grib2 2026-05-04 16:29 730K
20260504T12Z_MSC_GDPS_GeopotentialHeight_IsbL-0950_LatLon0.15_PT063H.grib2 2026-05-04 16:29 736K
20260504T12Z_MSC_GDPS_GeopotentialHeight_IsbL-0970_LatLon0.15_PT063H.grib2 2026-05-04 16:29 747K
20260504T12Z_MSC_GDPS_GeopotentialHeight_IsbL-0985_LatLon0.15_PT063H.grib2 2026-05-04 16:29 761K
20260504T12Z_MSC_GDPS_GeopotentialHeight_IsbL-1000_LatLon0.15_PT063H.grib2 2026-05-04 16:29 780K
20260504T12Z_MSC_GDPS_GeopotentialHeight_IsbL-1015_LatLon0.15_PT063H.grib2 2026-05-04 16:29 803K
20260504T12Z_MSC_GDPS_IcePellets-Accum1h_Sfc_LatLon0.15_PT063H.grib2 2026-05-04 16:29 6.5K
20260504T12Z_MSC_GDPS_IcePellets-Accum3h_Sfc_LatLon0.15_PT063H.grib2 2026-05-04 16:29 8.4K
20260504T12Z_MSC_GDPS_IcePellets-Accum_Sfc_LatLon0.15_PT063H.grib2 2026-05-04 16:29 77K
20260504T12Z_MSC_GDPS_KIndex_Sfc_LatLon0.15_PT063H.grib2 2026-05-04 16:29 6.5M
20260504T12Z_MSC_GDPS_LatentHeatNetFlux_Sfc_LatLon0.15_PT063H.grib2 2026-05-04 16:29 688K
20260504T12Z_MSC_GDPS_LiftedIndex-MU-VT_IsbL-0500_LatLon0.15_PT063H.grib2 2026-05-04 16:29 5.4M
20260504T12Z_MSC_GDPS_NetLongwaveRadiationFlux-Accum_Sfc_LatLon0.15_PT063H.grib2 2026-05-04 16:29 938K
20260504T12Z_MSC_GDPS_NetShortwaveRadiationFlux-Accum_Sfc_LatLon0.15_PT063H.grib2 2026-05-04 16:29 1.1M
20260504T12Z_MSC_GDPS_O3MixingRatio_Sfc_LatLon0.15_PT063H.grib2 2026-05-04 17:17 2.3M
20260504T12Z_MSC_GDPS_O3_EAtm_LatLon0.15_PT063H.grib2 2026-05-04 17:17 2.4M
20260504T12Z_MSC_GDPS_PlanetaryBoundaryLayerHeight_Sfc_LatLon0.15_PT063H.grib2 2026-05-04 16:29 2.4M
20260504T12Z_MSC_GDPS_Precip-Accum1h_Sfc_LatLon0.15_PT063H.grib2 2026-05-04 16:29 3.2M
20260504T12Z_MSC_GDPS_Precip-Accum3h_Sfc_LatLon0.15_PT063H.grib2 2026-05-04 16:29 3.5M
20260504T12Z_MSC_GDPS_Precip-Accum_Sfc_LatLon0.15_PT063H.grib2 2026-05-04 16:29 4.7M
20260504T12Z_MSC_GDPS_PrecipRate_Sfc_LatLon0.15_PT063H.grib2 2026-05-04 16:29 3.0M
20260504T12Z_MSC_GDPS_PrecipType-Instant_Sfc_LatLon0.15_PT063H.grib2 2026-05-04 16:29 1.5M
20260504T12Z_MSC_GDPS_Pressure_MSL_LatLon0.15_PT063H.grib2 2026-05-04 16:29 714K
20260504T12Z_MSC_GDPS_Pressure_Sfc_LatLon0.15_PT063H.grib2 2026-05-04 16:29 1.1M
20260504T12Z_MSC_GDPS_RadiativeTemp_Sfc_LatLon0.15_PT063H.grib2 2026-05-04 16:29 659K
20260504T12Z_MSC_GDPS_Rain-Accum1h_Sfc_LatLon0.15_PT063H.grib2 2026-05-04 16:29 1.6M
20260504T12Z_MSC_GDPS_Rain-Accum3h_Sfc_LatLon0.15_PT063H.grib2 2026-05-04 16:29 1.6M
20260504T12Z_MSC_GDPS_Rain-Accum_Sfc_LatLon0.15_PT063H.grib2 2026-05-04 16:29 3.6M
20260504T12Z_MSC_GDPS_RelativeHumidity_AGL-2m_LatLon0.15_PT063H.grib2 2026-05-04 16:29 1.1M
20260504T12Z_MSC_GDPS_RelativeHumidity_IsbL-0010_LatLon0.15_PT063H.grib2 2026-05-04 16:29 134K
20260504T12Z_MSC_GDPS_RelativeHumidity_IsbL-0020_LatLon0.15_PT063H.grib2 2026-05-04 16:29 170K
20260504T12Z_MSC_GDPS_RelativeHumidity_IsbL-0030_LatLon0.15_PT063H.grib2 2026-05-04 16:29 268K
20260504T12Z_MSC_GDPS_RelativeHumidity_IsbL-0050_LatLon0.15_PT063H.grib2 2026-05-04 16:29 334K
20260504T12Z_MSC_GDPS_RelativeHumidity_IsbL-0100_LatLon0.15_PT063H.grib2 2026-05-04 16:29 509K
20260504T12Z_MSC_GDPS_RelativeHumidity_IsbL-0150_LatLon0.15_PT063H.grib2 2026-05-04 16:29 682K
20260504T12Z_MSC_GDPS_RelativeHumidity_IsbL-0175_LatLon0.15_PT063H.grib2 2026-05-04 16:29 803K
20260504T12Z_MSC_GDPS_RelativeHumidity_IsbL-0200_LatLon0.15_PT063H.grib2 2026-05-04 16:29 711K
20260504T12Z_MSC_GDPS_RelativeHumidity_IsbL-0225_LatLon0.15_PT063H.grib2 2026-05-04 16:29 792K
20260504T12Z_MSC_GDPS_RelativeHumidity_IsbL-0250_LatLon0.15_PT063H.grib2 2026-05-04 16:29 857K
20260504T12Z_MSC_GDPS_RelativeHumidity_IsbL-0275_LatLon0.15_PT063H.grib2 2026-05-04 16:29 876K
20260504T12Z_MSC_GDPS_RelativeHumidity_IsbL-0300_LatLon0.15_PT063H.grib2 2026-05-04 16:29 919K
20260504T12Z_MSC_GDPS_RelativeHumidity_IsbL-0350_LatLon0.15_PT063H.grib2 2026-05-04 16:29 949K
20260504T12Z_MSC_GDPS_RelativeHumidity_IsbL-0400_LatLon0.15_PT063H.grib2 2026-05-04 16:29 1.0M
20260504T12Z_MSC_GDPS_RelativeHumidity_IsbL-0450_LatLon0.15_PT063H.grib2 2026-05-04 16:29 1.0M
20260504T12Z_MSC_GDPS_RelativeHumidity_IsbL-0500_LatLon0.15_PT063H.grib2 2026-05-04 16:29 1.0M
20260504T12Z_MSC_GDPS_RelativeHumidity_IsbL-0550_LatLon0.15_PT063H.grib2 2026-05-04 16:29 1.0M
20260504T12Z_MSC_GDPS_RelativeHumidity_IsbL-0600_LatLon0.15_PT063H.grib2 2026-05-04 16:29 1.1M
20260504T12Z_MSC_GDPS_RelativeHumidity_IsbL-0650_LatLon0.15_PT063H.grib2 2026-05-04 16:29 1.1M
20260504T12Z_MSC_GDPS_RelativeHumidity_IsbL-0700_LatLon0.15_PT063H.grib2 2026-05-04 16:29 1.1M
20260504T12Z_MSC_GDPS_RelativeHumidity_IsbL-0750_LatLon0.15_PT063H.grib2 2026-05-04 16:29 1.2M
20260504T12Z_MSC_GDPS_RelativeHumidity_IsbL-0800_LatLon0.15_PT063H.grib2 2026-05-04 16:29 1.2M
20260504T12Z_MSC_GDPS_RelativeHumidity_IsbL-0850_LatLon0.15_PT063H.grib2 2026-05-04 16:29 1.3M
20260504T12Z_MSC_GDPS_RelativeHumidity_IsbL-0875_LatLon0.15_PT063H.grib2 2026-05-04 16:29 1.3M
20260504T12Z_MSC_GDPS_RelativeHumidity_IsbL-0900_LatLon0.15_PT063H.grib2 2026-05-04 16:29 1.2M
20260504T12Z_MSC_GDPS_RelativeHumidity_IsbL-0925_LatLon0.15_PT063H.grib2 2026-05-04 16:29 1.2M
20260504T12Z_MSC_GDPS_RelativeHumidity_IsbL-0950_LatLon0.15_PT063H.grib2 2026-05-04 16:29 1.2M
20260504T12Z_MSC_GDPS_RelativeHumidity_IsbL-0970_LatLon0.15_PT063H.grib2 2026-05-04 16:29 1.2M
20260504T12Z_MSC_GDPS_RelativeHumidity_IsbL-0985_LatLon0.15_PT063H.grib2 2026-05-04 16:29 1.1M
20260504T12Z_MSC_GDPS_RelativeHumidity_IsbL-1000_LatLon0.15_PT063H.grib2 2026-05-04 16:29 1.1M
20260504T12Z_MSC_GDPS_RelativeHumidity_IsbL-1015_LatLon0.15_PT063H.grib2 2026-05-04 16:29 1.0M
20260504T12Z_MSC_GDPS_RelativeVorticity_IsbL-0200_LatLon0.15_PT063H.grib2 2026-05-04 16:29 1.5M
20260504T12Z_MSC_GDPS_RelativeVorticity_IsbL-0250_LatLon0.15_PT063H.grib2 2026-05-04 16:29 1.3M
20260504T12Z_MSC_GDPS_RelativeVorticity_IsbL-0500_LatLon0.15_PT063H.grib2 2026-05-04 16:29 1.4M
20260504T12Z_MSC_GDPS_RelativeVorticity_IsbL-0700_LatLon0.15_PT063H.grib2 2026-05-04 16:29 1.3M
20260504T12Z_MSC_GDPS_RelativeVorticity_IsbL-0850_LatLon0.15_PT063H.grib2 2026-05-04 16:29 1.6M
20260504T12Z_MSC_GDPS_Runoff-Accum_Sfc_LatLon0.15_PT063H.grib2 2026-05-04 16:29 101K
20260504T12Z_MSC_GDPS_SensibleHeatNetFlux_Sfc_LatLon0.15_PT063H.grib2 2026-05-04 16:29 466K
20260504T12Z_MSC_GDPS_ShowalterIndex_IsbL-0500_LatLon0.15_PT063H.grib2 2026-05-04 16:29 6.2M
20260504T12Z_MSC_GDPS_Snow-Accum1h_Sfc_LatLon0.15_PT063H.grib2 2026-05-04 16:29 1.3M
20260504T12Z_MSC_GDPS_Snow-Accum3h_Sfc_LatLon0.15_PT063H.grib2 2026-05-04 16:29 1.2M
20260504T12Z_MSC_GDPS_Snow-Accum_Sfc_LatLon0.15_PT063H.grib2 2026-05-04 16:29 1.9M
20260504T12Z_MSC_GDPS_SnowDensity_Sfc_LatLon0.15_PT063H.grib2 2026-05-04 16:29 258K
20260504T12Z_MSC_GDPS_SnowDepth_Sfc_LatLon0.15_PT063H.grib2 2026-05-04 16:29 1.7M
20260504T12Z_MSC_GDPS_SoilTemp_DBS-0to10cm_LatLon0.15_PT063H.grib2 2026-05-04 16:29 509K
20260504T12Z_MSC_GDPS_SoilTemp_Sfc_LatLon0.15_PT063H.grib2 2026-05-04 16:29 582K
20260504T12Z_MSC_GDPS_SoilVolumetricIceContent_Sfc_LatLon0.15_PT063H.grib2 2026-05-04 16:29 187K
20260504T12Z_MSC_GDPS_SoilVolumetricWaterContent_DBS-0to10cm_LatLon0.15_PT063H.grib2 2026-05-04 16:29 594K
20260504T12Z_MSC_GDPS_SoilVolumetricWaterContent_DBS-0to1cm_LatLon0.15_PT063H.grib2 2026-05-04 16:29 657K
20260504T12Z_MSC_GDPS_SpecificHumidity_AGL-120m_LatLon0.15_PT063H.grib2 2026-05-04 16:29 1.1M
20260504T12Z_MSC_GDPS_SpecificHumidity_AGL-2m_LatLon0.15_PT063H.grib2 2026-05-04 16:29 1.2M
20260504T12Z_MSC_GDPS_SpecificHumidity_AGL-40m_LatLon0.15_PT063H.grib2 2026-05-04 16:29 1.1M
20260504T12Z_MSC_GDPS_SpecificHumidity_AGL-80m_LatLon0.15_PT063H.grib2 2026-05-04 16:29 1.1M
20260504T12Z_MSC_GDPS_SpecificHumidity_IsbL-0001_LatLon0.15_PT063H.grib2 2026-05-04 16:29 1.3M
20260504T12Z_MSC_GDPS_SpecificHumidity_IsbL-0005_LatLon0.15_PT063H.grib2 2026-05-04 16:29 1.2M
20260504T12Z_MSC_GDPS_SpecificHumidity_IsbL-0010_LatLon0.15_PT063H.grib2 2026-05-04 16:29 1.3M
20260504T12Z_MSC_GDPS_SpecificHumidity_IsbL-0020_LatLon0.15_PT063H.grib2 2026-05-04 16:29 1.3M
20260504T12Z_MSC_GDPS_SpecificHumidity_IsbL-0030_LatLon0.15_PT063H.grib2 2026-05-04 16:29 1.3M
20260504T12Z_MSC_GDPS_SpecificHumidity_IsbL-0050_LatLon0.15_PT063H.grib2 2026-05-04 16:29 1.3M
20260504T12Z_MSC_GDPS_SpecificHumidity_IsbL-0100_LatLon0.15_PT063H.grib2 2026-05-04 16:29 1.3M
20260504T12Z_MSC_GDPS_SpecificHumidity_IsbL-0150_LatLon0.15_PT063H.grib2 2026-05-04 16:29 1.3M
20260504T12Z_MSC_GDPS_SpecificHumidity_IsbL-0175_LatLon0.15_PT063H.grib2 2026-05-04 16:29 1.3M
20260504T12Z_MSC_GDPS_SpecificHumidity_IsbL-0200_LatLon0.15_PT063H.grib2 2026-05-04 16:29 1.3M
20260504T12Z_MSC_GDPS_SpecificHumidity_IsbL-0225_LatLon0.15_PT063H.grib2 2026-05-04 16:29 1.3M
20260504T12Z_MSC_GDPS_SpecificHumidity_IsbL-0250_LatLon0.15_PT063H.grib2 2026-05-04 16:29 1.4M
20260504T12Z_MSC_GDPS_SpecificHumidity_IsbL-0275_LatLon0.15_PT063H.grib2 2026-05-04 16:29 1.3M
20260504T12Z_MSC_GDPS_SpecificHumidity_IsbL-0300_LatLon0.15_PT063H.grib2 2026-05-04 16:29 1.2M
20260504T12Z_MSC_GDPS_SpecificHumidity_IsbL-0350_LatLon0.15_PT063H.grib2 2026-05-04 16:29 1.2M
20260504T12Z_MSC_GDPS_SpecificHumidity_IsbL-0400_LatLon0.15_PT063H.grib2 2026-05-04 16:29 1.5M
20260504T12Z_MSC_GDPS_SpecificHumidity_IsbL-0450_LatLon0.15_PT063H.grib2 2026-05-04 16:29 1.6M
20260504T12Z_MSC_GDPS_SpecificHumidity_IsbL-0500_LatLon0.15_PT063H.grib2 2026-05-04 16:29 1.4M
20260504T12Z_MSC_GDPS_SpecificHumidity_IsbL-0550_LatLon0.15_PT063H.grib2 2026-05-04 16:29 1.6M
20260504T12Z_MSC_GDPS_SpecificHumidity_IsbL-0600_LatLon0.15_PT063H.grib2 2026-05-04 16:29 1.7M
20260504T12Z_MSC_GDPS_SpecificHumidity_IsbL-0650_LatLon0.15_PT063H.grib2 2026-05-04 16:29 1.5M
20260504T12Z_MSC_GDPS_SpecificHumidity_IsbL-0700_LatLon0.15_PT063H.grib2 2026-05-04 16:29 1.6M
20260504T12Z_MSC_GDPS_SpecificHumidity_IsbL-0750_LatLon0.15_PT063H.grib2 2026-05-04 16:29 1.7M
20260504T12Z_MSC_GDPS_SpecificHumidity_IsbL-0800_LatLon0.15_PT063H.grib2 2026-05-04 16:29 1.8M
20260504T12Z_MSC_GDPS_SpecificHumidity_IsbL-0850_LatLon0.15_PT063H.grib2 2026-05-04 16:29 1.9M
20260504T12Z_MSC_GDPS_SpecificHumidity_IsbL-0875_LatLon0.15_PT063H.grib2 2026-05-04 16:29 1.9M
20260504T12Z_MSC_GDPS_SpecificHumidity_IsbL-0900_LatLon0.15_PT063H.grib2 2026-05-04 16:29 1.9M
20260504T12Z_MSC_GDPS_SpecificHumidity_IsbL-0925_LatLon0.15_PT063H.grib2 2026-05-04 16:29 1.9M
20260504T12Z_MSC_GDPS_SpecificHumidity_IsbL-0950_LatLon0.15_PT063H.grib2 2026-05-04 16:29 1.6M
20260504T12Z_MSC_GDPS_SpecificHumidity_IsbL-0970_LatLon0.15_PT063H.grib2 2026-05-04 16:29 1.5M
20260504T12Z_MSC_GDPS_SpecificHumidity_IsbL-0985_LatLon0.15_PT063H.grib2 2026-05-04 16:29 1.5M
20260504T12Z_MSC_GDPS_SpecificHumidity_IsbL-1000_LatLon0.15_PT063H.grib2 2026-05-04 16:29 1.5M
20260504T12Z_MSC_GDPS_SpecificHumidity_IsbL-1015_LatLon0.15_PT063H.grib2 2026-05-04 16:29 1.4M
20260504T12Z_MSC_GDPS_SpecificHumidity_Sfc_LatLon0.15_PT063H.grib2 2026-05-04 16:29 636K
20260504T12Z_MSC_GDPS_Thickness_IsbL-0850to0700_LatLon0.15_PT063H.grib2 2026-05-04 16:29 464K
20260504T12Z_MSC_GDPS_Thickness_IsbL-1000to0500_LatLon0.15_PT063H.grib2 2026-05-04 16:29 366K
20260504T12Z_MSC_GDPS_Thickness_IsbL-1000to0850_LatLon0.15_PT063H.grib2 2026-05-04 16:29 485K
20260504T12Z_MSC_GDPS_TotalCloudCover_Sfc_LatLon0.15_PT063H.grib2 2026-05-04 16:29 830K
20260504T12Z_MSC_GDPS_TotalTotalsIndex_Sfc_LatLon0.15_PT063H.grib2 2026-05-04 16:29 6.2M
20260504T12Z_MSC_GDPS_UVIndex-ClearSky_Sfc_LatLon0.15_PT063H.grib2 2026-05-04 17:17 1.0M
20260504T12Z_MSC_GDPS_UVIndex_Sfc_LatLon0.15_PT063H.grib2 2026-05-04 17:17 1.5M
20260504T12Z_MSC_GDPS_UpwardLongwaveRadiationFlux_NTAtm_LatLon0.15_PT063H.grib2 2026-05-04 16:29 1.1M
20260504T12Z_MSC_GDPS_VerticalVelocity_IsbL-0200_LatLon0.15_PT063H.grib2 2026-05-04 16:29 929K
20260504T12Z_MSC_GDPS_VerticalVelocity_IsbL-0250_LatLon0.15_PT063H.grib2 2026-05-04 16:29 1.0M
20260504T12Z_MSC_GDPS_VerticalVelocity_IsbL-0500_LatLon0.15_PT063H.grib2 2026-05-04 16:29 1.0M
20260504T12Z_MSC_GDPS_VerticalVelocity_IsbL-0600_LatLon0.15_PT063H.grib2 2026-05-04 16:29 1.1M
20260504T12Z_MSC_GDPS_VerticalVelocity_IsbL-0700_LatLon0.15_PT063H.grib2 2026-05-04 16:29 1.1M
20260504T12Z_MSC_GDPS_VerticalVelocity_IsbL-0850_LatLon0.15_PT063H.grib2 2026-05-04 16:29 1.6M
20260504T12Z_MSC_GDPS_WindChill_Sfc_LatLon0.15_PT063H.grib2 2026-05-04 16:29 5.3M
20260504T12Z_MSC_GDPS_WindDir_AGL-10m_LatLon0.15_PT063H.grib2 2026-05-04 16:29 1.3M
20260504T12Z_MSC_GDPS_WindDir_AGL-120m_LatLon0.15_PT063H.grib2 2026-05-04 16:29 1.3M
20260504T12Z_MSC_GDPS_WindDir_AGL-40m_LatLon0.15_PT063H.grib2 2026-05-04 16:29 1.4M
20260504T12Z_MSC_GDPS_WindDir_AGL-80m_LatLon0.15_PT063H.grib2 2026-05-04 16:29 1.3M
20260504T12Z_MSC_GDPS_WindDir_IsbL-0001_LatLon0.15_PT063H.grib2 2026-05-04 16:29 670K
20260504T12Z_MSC_GDPS_WindDir_IsbL-0005_LatLon0.15_PT063H.grib2 2026-05-04 16:29 812K
20260504T12Z_MSC_GDPS_WindDir_IsbL-0010_LatLon0.15_PT063H.grib2 2026-05-04 16:29 828K
20260504T12Z_MSC_GDPS_WindDir_IsbL-0020_LatLon0.15_PT063H.grib2 2026-05-04 16:29 928K
20260504T12Z_MSC_GDPS_WindDir_IsbL-0030_LatLon0.15_PT063H.grib2 2026-05-04 16:29 931K
20260504T12Z_MSC_GDPS_WindDir_IsbL-0050_LatLon0.15_PT063H.grib2 2026-05-04 16:29 947K
20260504T12Z_MSC_GDPS_WindDir_IsbL-0100_LatLon0.15_PT063H.grib2 2026-05-04 16:29 1.0M
20260504T12Z_MSC_GDPS_WindDir_IsbL-0150_LatLon0.15_PT063H.grib2 2026-05-04 16:29 1.0M
20260504T12Z_MSC_GDPS_WindDir_IsbL-0175_LatLon0.15_PT063H.grib2 2026-05-04 16:29 1.1M
20260504T12Z_MSC_GDPS_WindDir_IsbL-0200_LatLon0.15_PT063H.grib2 2026-05-04 16:29 1.1M
20260504T12Z_MSC_GDPS_WindDir_IsbL-0225_LatLon0.15_PT063H.grib2 2026-05-04 16:29 1.1M
20260504T12Z_MSC_GDPS_WindDir_IsbL-0250_LatLon0.15_PT063H.grib2 2026-05-04 16:29 1.1M
20260504T12Z_MSC_GDPS_WindDir_IsbL-0275_LatLon0.15_PT063H.grib2 2026-05-04 16:29 1.2M
20260504T12Z_MSC_GDPS_WindDir_IsbL-0300_LatLon0.15_PT063H.grib2 2026-05-04 16:29 1.2M
20260504T12Z_MSC_GDPS_WindDir_IsbL-0350_LatLon0.15_PT063H.grib2 2026-05-04 16:29 1.2M
20260504T12Z_MSC_GDPS_WindDir_IsbL-0400_LatLon0.15_PT063H.grib2 2026-05-04 16:29 1.3M
20260504T12Z_MSC_GDPS_WindDir_IsbL-0450_LatLon0.15_PT063H.grib2 2026-05-04 16:29 1.3M
20260504T12Z_MSC_GDPS_WindDir_IsbL-0500_LatLon0.15_PT063H.grib2 2026-05-04 16:29 1.3M
20260504T12Z_MSC_GDPS_WindDir_IsbL-0550_LatLon0.15_PT063H.grib2 2026-05-04 16:29 1.4M
20260504T12Z_MSC_GDPS_WindDir_IsbL-0600_LatLon0.15_PT063H.grib2 2026-05-04 16:29 1.4M
20260504T12Z_MSC_GDPS_WindDir_IsbL-0650_LatLon0.15_PT063H.grib2 2026-05-04 16:29 1.5M
20260504T12Z_MSC_GDPS_WindDir_IsbL-0700_LatLon0.15_PT063H.grib2 2026-05-04 16:29 1.6M
20260504T12Z_MSC_GDPS_WindDir_IsbL-0750_LatLon0.15_PT063H.grib2 2026-05-04 16:29 1.7M
20260504T12Z_MSC_GDPS_WindDir_IsbL-0800_LatLon0.15_PT063H.grib2 2026-05-04 16:29 1.8M
20260504T12Z_MSC_GDPS_WindDir_IsbL-0850_LatLon0.15_PT063H.grib2 2026-05-04 16:29 1.9M
20260504T12Z_MSC_GDPS_WindDir_IsbL-0875_LatLon0.15_PT063H.grib2 2026-05-04 16:29 1.9M
20260504T12Z_MSC_GDPS_WindDir_IsbL-0900_LatLon0.15_PT063H.grib2 2026-05-04 16:29 1.9M
20260504T12Z_MSC_GDPS_WindDir_IsbL-0925_LatLon0.15_PT063H.grib2 2026-05-04 16:29 1.9M
20260504T12Z_MSC_GDPS_WindDir_IsbL-0950_LatLon0.15_PT063H.grib2 2026-05-04 16:29 1.9M
20260504T12Z_MSC_GDPS_WindDir_IsbL-0970_LatLon0.15_PT063H.grib2 2026-05-04 16:29 2.0M
20260504T12Z_MSC_GDPS_WindDir_IsbL-0985_LatLon0.15_PT063H.grib2 2026-05-04 16:29 2.0M
20260504T12Z_MSC_GDPS_WindDir_IsbL-1000_LatLon0.15_PT063H.grib2 2026-05-04 16:29 2.0M
20260504T12Z_MSC_GDPS_WindDir_IsbL-1015_LatLon0.15_PT063H.grib2 2026-05-04 16:29 2.0M
20260504T12Z_MSC_GDPS_WindGust-Max_AGL-10m_LatLon0.15_PT063H.grib2 2026-05-04 16:29 2.2M
20260504T12Z_MSC_GDPS_WindGust-Min_AGL-10m_LatLon0.15_PT063H.grib2 2026-05-04 16:29 2.2M
20260504T12Z_MSC_GDPS_WindGust_AGL-10m_LatLon0.15_PT063H.grib2 2026-05-04 16:29 2.2M
20260504T12Z_MSC_GDPS_WindSpeed_AGL-10m_LatLon0.15_PT063H.grib2 2026-05-04 16:29 1.1M
20260504T12Z_MSC_GDPS_WindSpeed_AGL-120m_LatLon0.15_PT063H.grib2 2026-05-04 16:29 1.2M
20260504T12Z_MSC_GDPS_WindSpeed_AGL-40m_LatLon0.15_PT063H.grib2 2026-05-04 16:29 1.2M
20260504T12Z_MSC_GDPS_WindSpeed_AGL-80m_LatLon0.15_PT063H.grib2 2026-05-04 16:29 1.2M
20260504T12Z_MSC_GDPS_WindSpeed_IsbL-0001_LatLon0.15_PT063H.grib2 2026-05-04 16:29 651K
20260504T12Z_MSC_GDPS_WindSpeed_IsbL-0005_LatLon0.15_PT063H.grib2 2026-05-04 16:29 697K
20260504T12Z_MSC_GDPS_WindSpeed_IsbL-0010_LatLon0.15_PT063H.grib2 2026-05-04 16:29 632K
20260504T12Z_MSC_GDPS_WindSpeed_IsbL-0020_LatLon0.15_PT063H.grib2 2026-05-04 16:29 668K
20260504T12Z_MSC_GDPS_WindSpeed_IsbL-0030_LatLon0.15_PT063H.grib2 2026-05-04 16:29 863K
20260504T12Z_MSC_GDPS_WindSpeed_IsbL-0050_LatLon0.15_PT063H.grib2 2026-05-04 16:29 899K
20260504T12Z_MSC_GDPS_WindSpeed_IsbL-0100_LatLon0.15_PT063H.grib2 2026-05-04 16:29 1.1M
20260504T12Z_MSC_GDPS_WindSpeed_IsbL-0150_LatLon0.15_PT063H.grib2 2026-05-04 16:29 1.0M
20260504T12Z_MSC_GDPS_WindSpeed_IsbL-0175_LatLon0.15_PT063H.grib2 2026-05-04 16:29 1.0M
20260504T12Z_MSC_GDPS_WindSpeed_IsbL-0200_LatLon0.15_PT063H.grib2 2026-05-04 16:29 1.1M
20260504T12Z_MSC_GDPS_WindSpeed_IsbL-0225_LatLon0.15_PT063H.grib2 2026-05-04 16:29 1.1M
20260504T12Z_MSC_GDPS_WindSpeed_IsbL-0250_LatLon0.15_PT063H.grib2 2026-05-04 16:29 1.1M
20260504T12Z_MSC_GDPS_WindSpeed_IsbL-0275_LatLon0.15_PT063H.grib2 2026-05-04 16:29 1.1M
20260504T12Z_MSC_GDPS_WindSpeed_IsbL-0300_LatLon0.15_PT063H.grib2 2026-05-04 16:29 1.1M
20260504T12Z_MSC_GDPS_WindSpeed_IsbL-0350_LatLon0.15_PT063H.grib2 2026-05-04 16:29 1.1M
20260504T12Z_MSC_GDPS_WindSpeed_IsbL-0400_LatLon0.15_PT063H.grib2 2026-05-04 16:29 1.1M
20260504T12Z_MSC_GDPS_WindSpeed_IsbL-0450_LatLon0.15_PT063H.grib2 2026-05-04 16:29 1.1M
20260504T12Z_MSC_GDPS_WindSpeed_IsbL-0500_LatLon0.15_PT063H.grib2 2026-05-04 16:29 1.1M
20260504T12Z_MSC_GDPS_WindSpeed_IsbL-0550_LatLon0.15_PT063H.grib2 2026-05-04 16:29 1.1M
20260504T12Z_MSC_GDPS_WindSpeed_IsbL-0600_LatLon0.15_PT063H.grib2 2026-05-04 16:29 1.1M
20260504T12Z_MSC_GDPS_WindSpeed_IsbL-0650_LatLon0.15_PT063H.grib2 2026-05-04 16:29 1.2M
20260504T12Z_MSC_GDPS_WindSpeed_IsbL-0700_LatLon0.15_PT063H.grib2 2026-05-04 16:29 1.2M
20260504T12Z_MSC_GDPS_WindSpeed_IsbL-0750_LatLon0.15_PT063H.grib2 2026-05-04 16:29 1.5M
20260504T12Z_MSC_GDPS_WindSpeed_IsbL-0800_LatLon0.15_PT063H.grib2 2026-05-04 16:29 1.6M
20260504T12Z_MSC_GDPS_WindSpeed_IsbL-0850_LatLon0.15_PT063H.grib2 2026-05-04 16:29 1.7M
20260504T12Z_MSC_GDPS_WindSpeed_IsbL-0875_LatLon0.15_PT063H.grib2 2026-05-04 16:29 1.8M
20260504T12Z_MSC_GDPS_WindSpeed_IsbL-0900_LatLon0.15_PT063H.grib2 2026-05-04 16:29 1.8M
20260504T12Z_MSC_GDPS_WindSpeed_IsbL-0925_LatLon0.15_PT063H.grib2 2026-05-04 16:29 1.8M
20260504T12Z_MSC_GDPS_WindSpeed_IsbL-0950_LatLon0.15_PT063H.grib2 2026-05-04 16:29 1.9M
20260504T12Z_MSC_GDPS_WindSpeed_IsbL-0970_LatLon0.15_PT063H.grib2 2026-05-04 16:29 1.9M
20260504T12Z_MSC_GDPS_WindSpeed_IsbL-0985_LatLon0.15_PT063H.grib2 2026-05-04 16:29 1.9M
20260504T12Z_MSC_GDPS_WindSpeed_IsbL-1000_LatLon0.15_PT063H.grib2 2026-05-04 16:29 1.8M
20260504T12Z_MSC_GDPS_WindSpeed_IsbL-1015_LatLon0.15_PT063H.grib2 2026-05-04 16:29 1.8M
20260504T12Z_MSC_GDPS_WindU_AGL-10m_LatLon0.15_PT063H.grib2 2026-05-04 16:29 1.3M
20260504T12Z_MSC_GDPS_WindU_AGL-120m_LatLon0.15_PT063H.grib2 2026-05-04 16:29 961K
20260504T12Z_MSC_GDPS_WindU_AGL-40m_LatLon0.15_PT063H.grib2 2026-05-04 16:29 956K
20260504T12Z_MSC_GDPS_WindU_AGL-80m_LatLon0.15_PT063H.grib2 2026-05-04 16:29 961K
20260504T12Z_MSC_GDPS_WindU_IsbL-0001_LatLon0.15_PT063H.grib2 2026-05-04 16:29 509K
20260504T12Z_MSC_GDPS_WindU_IsbL-0005_LatLon0.15_PT063H.grib2 2026-05-04 16:29 699K
20260504T12Z_MSC_GDPS_WindU_IsbL-0010_LatLon0.15_PT063H.grib2 2026-05-04 16:29 708K
20260504T12Z_MSC_GDPS_WindU_IsbL-0020_LatLon0.15_PT063H.grib2 2026-05-04 16:29 735K
20260504T12Z_MSC_GDPS_WindU_IsbL-0030_LatLon0.15_PT063H.grib2 2026-05-04 16:29 744K
20260504T12Z_MSC_GDPS_WindU_IsbL-0050_LatLon0.15_PT063H.grib2 2026-05-04 16:29 766K
20260504T12Z_MSC_GDPS_WindU_IsbL-0100_LatLon0.15_PT063H.grib2 2026-05-04 16:29 915K
20260504T12Z_MSC_GDPS_WindU_IsbL-0150_LatLon0.15_PT063H.grib2 2026-05-04 16:29 1.0M
20260504T12Z_MSC_GDPS_WindU_IsbL-0175_LatLon0.15_PT063H.grib2 2026-05-04 16:29 1.0M
20260504T12Z_MSC_GDPS_WindU_IsbL-0200_LatLon0.15_PT063H.grib2 2026-05-04 16:29 843K
20260504T12Z_MSC_GDPS_WindU_IsbL-0225_LatLon0.15_PT063H.grib2 2026-05-04 16:29 851K
20260504T12Z_MSC_GDPS_WindU_IsbL-0250_LatLon0.15_PT063H.grib2 2026-05-04 16:29 852K
20260504T12Z_MSC_GDPS_WindU_IsbL-0275_LatLon0.15_PT063H.grib2 2026-05-04 16:29 876K
20260504T12Z_MSC_GDPS_WindU_IsbL-0300_LatLon0.15_PT063H.grib2 2026-05-04 16:29 869K
20260504T12Z_MSC_GDPS_WindU_IsbL-0350_LatLon0.15_PT063H.grib2 2026-05-04 16:29 885K
20260504T12Z_MSC_GDPS_WindU_IsbL-0400_LatLon0.15_PT063H.grib2 2026-05-04 16:29 889K
20260504T12Z_MSC_GDPS_WindU_IsbL-0450_LatLon0.15_PT063H.grib2 2026-05-04 16:29 890K
20260504T12Z_MSC_GDPS_WindU_IsbL-0500_LatLon0.15_PT063H.grib2 2026-05-04 16:29 1.1M
20260504T12Z_MSC_GDPS_WindU_IsbL-0550_LatLon0.15_PT063H.grib2 2026-05-04 16:29 1.1M
20260504T12Z_MSC_GDPS_WindU_IsbL-0600_LatLon0.15_PT063H.grib2 2026-05-04 16:29 1.1M
20260504T12Z_MSC_GDPS_WindU_IsbL-0650_LatLon0.15_PT063H.grib2 2026-05-04 16:29 1.2M
20260504T12Z_MSC_GDPS_WindU_IsbL-0700_LatLon0.15_PT063H.grib2 2026-05-04 16:29 1.2M
20260504T12Z_MSC_GDPS_WindU_IsbL-0750_LatLon0.15_PT063H.grib2 2026-05-04 16:29 1.3M
20260504T12Z_MSC_GDPS_WindU_IsbL-0800_LatLon0.15_PT063H.grib2 2026-05-04 16:29 1.3M
20260504T12Z_MSC_GDPS_WindU_IsbL-0850_LatLon0.15_PT063H.grib2 2026-05-04 16:29 1.4M
20260504T12Z_MSC_GDPS_WindU_IsbL-0875_LatLon0.15_PT063H.grib2 2026-05-04 16:29 1.4M
20260504T12Z_MSC_GDPS_WindU_IsbL-0900_LatLon0.15_PT063H.grib2 2026-05-04 16:29 1.5M
20260504T12Z_MSC_GDPS_WindU_IsbL-0925_LatLon0.15_PT063H.grib2 2026-05-04 16:29 1.5M
20260504T12Z_MSC_GDPS_WindU_IsbL-0950_LatLon0.15_PT063H.grib2 2026-05-04 16:29 1.4M
20260504T12Z_MSC_GDPS_WindU_IsbL-0970_LatLon0.15_PT063H.grib2 2026-05-04 16:29 1.4M
20260504T12Z_MSC_GDPS_WindU_IsbL-0985_LatLon0.15_PT063H.grib2 2026-05-04 16:29 1.4M
20260504T12Z_MSC_GDPS_WindU_IsbL-1000_LatLon0.15_PT063H.grib2 2026-05-04 16:29 1.4M
20260504T12Z_MSC_GDPS_WindU_IsbL-1015_LatLon0.15_PT063H.grib2 2026-05-04 16:29 1.3M
20260504T12Z_MSC_GDPS_WindV_AGL-10m_LatLon0.15_PT063H.grib2 2026-05-04 16:29 1.3M
20260504T12Z_MSC_GDPS_WindV_AGL-120m_LatLon0.15_PT063H.grib2 2026-05-04 16:29 962K
20260504T12Z_MSC_GDPS_WindV_AGL-40m_LatLon0.15_PT063H.grib2 2026-05-04 16:29 956K
20260504T12Z_MSC_GDPS_WindV_AGL-80m_LatLon0.15_PT063H.grib2 2026-05-04 16:29 962K
20260504T12Z_MSC_GDPS_WindV_IsbL-0001_LatLon0.15_PT063H.grib2 2026-05-04 16:29 724K
20260504T12Z_MSC_GDPS_WindV_IsbL-0005_LatLon0.15_PT063H.grib2 2026-05-04 16:29 863K
20260504T12Z_MSC_GDPS_WindV_IsbL-0010_LatLon0.15_PT063H.grib2 2026-05-04 16:29 890K
20260504T12Z_MSC_GDPS_WindV_IsbL-0020_LatLon0.15_PT063H.grib2 2026-05-04 16:29 853K
20260504T12Z_MSC_GDPS_WindV_IsbL-0030_LatLon0.15_PT063H.grib2 2026-05-04 16:29 857K
20260504T12Z_MSC_GDPS_WindV_IsbL-0050_LatLon0.15_PT063H.grib2 2026-05-04 16:29 1.0M
20260504T12Z_MSC_GDPS_WindV_IsbL-0100_LatLon0.15_PT063H.grib2 2026-05-04 16:29 1.0M
20260504T12Z_MSC_GDPS_WindV_IsbL-0150_LatLon0.15_PT063H.grib2 2026-05-04 16:29 1.0M
20260504T12Z_MSC_GDPS_WindV_IsbL-0175_LatLon0.15_PT063H.grib2 2026-05-04 16:29 1.0M
20260504T12Z_MSC_GDPS_WindV_IsbL-0200_LatLon0.15_PT063H.grib2 2026-05-04 16:29 840K
20260504T12Z_MSC_GDPS_WindV_IsbL-0225_LatLon0.15_PT063H.grib2 2026-05-04 16:29 903K
20260504T12Z_MSC_GDPS_WindV_IsbL-0250_LatLon0.15_PT063H.grib2 2026-05-04 16:29 904K
20260504T12Z_MSC_GDPS_WindV_IsbL-0275_LatLon0.15_PT063H.grib2 2026-05-04 16:29 929K
20260504T12Z_MSC_GDPS_WindV_IsbL-0300_LatLon0.15_PT063H.grib2 2026-05-04 16:29 922K
20260504T12Z_MSC_GDPS_WindV_IsbL-0350_LatLon0.15_PT063H.grib2 2026-05-04 16:29 936K
20260504T12Z_MSC_GDPS_WindV_IsbL-0400_LatLon0.15_PT063H.grib2 2026-05-04 16:29 878K
20260504T12Z_MSC_GDPS_WindV_IsbL-0450_LatLon0.15_PT063H.grib2 2026-05-04 16:29 878K
20260504T12Z_MSC_GDPS_WindV_IsbL-0500_LatLon0.15_PT063H.grib2 2026-05-04 16:29 1.1M
20260504T12Z_MSC_GDPS_WindV_IsbL-0550_LatLon0.15_PT063H.grib2 2026-05-04 16:29 1.1M
20260504T12Z_MSC_GDPS_WindV_IsbL-0600_LatLon0.15_PT063H.grib2 2026-05-04 16:29 1.1M
20260504T12Z_MSC_GDPS_WindV_IsbL-0650_LatLon0.15_PT063H.grib2 2026-05-04 16:29 1.2M
20260504T12Z_MSC_GDPS_WindV_IsbL-0700_LatLon0.15_PT063H.grib2 2026-05-04 16:29 1.2M
20260504T12Z_MSC_GDPS_WindV_IsbL-0750_LatLon0.15_PT063H.grib2 2026-05-04 16:29 1.3M
20260504T12Z_MSC_GDPS_WindV_IsbL-0800_LatLon0.15_PT063H.grib2 2026-05-04 16:29 1.3M
20260504T12Z_MSC_GDPS_WindV_IsbL-0850_LatLon0.15_PT063H.grib2 2026-05-04 16:29 1.4M
20260504T12Z_MSC_GDPS_WindV_IsbL-0875_LatLon0.15_PT063H.grib2 2026-05-04 16:29 1.4M
20260504T12Z_MSC_GDPS_WindV_IsbL-0900_LatLon0.15_PT063H.grib2 2026-05-04 16:29 1.4M
20260504T12Z_MSC_GDPS_WindV_IsbL-0925_LatLon0.15_PT063H.grib2 2026-05-04 16:29 1.4M
20260504T12Z_MSC_GDPS_WindV_IsbL-0950_LatLon0.15_PT063H.grib2 2026-05-04 16:29 1.4M
20260504T12Z_MSC_GDPS_WindV_IsbL-0970_LatLon0.15_PT063H.grib2 2026-05-04 16:29 1.4M
20260504T12Z_MSC_GDPS_WindV_IsbL-0985_LatLon0.15_PT063H.grib2 2026-05-04 16:29 1.4M
20260504T12Z_MSC_GDPS_WindV_IsbL-1000_LatLon0.15_PT063H.grib2 2026-05-04 16:29 1.4M
20260504T12Z_MSC_GDPS_WindV_IsbL-1015_LatLon0.15_PT063H.grib2 2026-05-04 16:29 1.3M